SA3PJN-WX Weather Reports


Display with metric or nautical units.
time (UTC)temp
F
wind
direction
speed
MPH
gust
MPH
rain 1hr
in
rain 24hr
in
rain mn
in
humidity
%
barometer
mb
20260505062724 36 172 7.0 20.0 0.00 0.00 0.00 73 959.1
20260505062154 35 52 7.0 19.0 0.00 0.00 0.00 73 959.0
20260505061624 35 91 7.0 19.0 0.00 0.00 0.00 74 959.1
20260505061054 35 110 8.0 23.0 0.00 0.00 0.00 74 959.1
20260505060554 35 154 8.0 23.0 0.00 0.00 0.00 73 959.0
20260505060024 36 226 7.0 23.0 0.00 0.00 0.00 72 959.1
20260505055524 37 185 7.0 19.0 0.00 0.00 0.00 71 959.1
20260505055024 38 117 6.0 17.0 0.00 0.00 0.00 72 959.1
20260505054454 37 171 6.0 19.0 0.00 0.00 0.00 73 959.0
20260505053954 36 86 7.0 19.0 0.00 0.00 0.00 74 959.1
20260505053454 35 186 7.0 18.0 0.00 0.00 0.00 75 959.0
20260505052924 36 68 6.0 21.0 0.00 0.00 0.00 73 959.0
20260505052424 36 74 6.0 21.0 0.00 0.00 0.00 75 959.0
20260505051854 36 138 7.0 22.0 0.00 0.00 0.00 74 959.0
20260505051354 35 127 7.0 22.0 0.00 0.00 0.00 76 959.0
20260505050854 35 13 6.0 18.0 0.00 0.00 0.00 74 958.6
20260505050353 37 131 6.0 19.0 0.00 0.00 0.00 72 959.0
20260505041753 34 184 5.0 13.0 0.00 0.00 0.00 78 958.3
20260505041253 33 177 4.0 13.0 0.00 0.00 0.00 79 958.3
20260505040753 33 274 4.0 13.0 0.00 0.00 0.00 80 958.2
20260505040253 33 115 4.0 16.0 0.00 0.00 0.00 80 958.2
20260505035723 34 104 4.0 16.0 0.00 0.00 0.00 77 958.0
20260505035223 34 64 4.0 15.0 0.00 0.00 0.00 77 958.1
20260505034723 33 36 4.0 15.0 0.00 0.00 0.00 80 958.1
20260505034153 33 19 3.0 12.0 0.00 0.00 0.00 81 958.1
20260505033653 32 182 3.0 11.0 0.00 0.00 0.00 80 958.0
20260505033153 32 127 3.0 9.0 0.00 0.00 0.00 81 958.0
20260505032653 33 341 3.0 9.0 0.00 0.00 0.00 80 958.0
20260505032153 33 297 3.0 12.0 0.00 0.00 0.00 79 958.0
20260505031653 32 111 3.0 12.0 0.00 0.00 0.00 84 958.0
20260505031153 31 238 3.0 11.0 0.00 0.00 0.00 86 958.0
20260505030653 31 51 4.0 11.0 0.00 0.00 0.00 86 958.0
20260505030123 31 167 3.0 11.0 0.00 0.00 0.00 85 957.6
20260505025623 30 199 3.0 9.0 0.00 0.00 0.00 87 957.6
20260505025123 30 32 3.0 10.0 0.00 0.00 0.00 87 957.6
20260505024623 30 98 3.0 10.0 0.00 0.00 0.00 87 957.6
20260505024123 30 157 3.0 9.0 0.00 0.00 0.00 87 957.5
20260505023553 30 95 3.0 13.0 0.00 0.00 0.00 87 957.5
20260505023053 30 202 3.0 13.0 0.00 0.00 0.00 86 957.5
20260505022553 31 156 4.0 11.0 0.00 0.00 0.00 86 957.5
20260505022053 31 121 4.0 13.0 0.00 0.00 0.00 85 957.4
20260505021553 31 256 5.0 15.0 0.00 0.00 0.00 84 957.3
20260505021053 31 161 5.0 15.0 0.00 0.00 0.00 84 957.2
20260505020553 31 191 5.0 15.0 0.00 0.00 0.00 84 957.3
20260505020053 31 187 5.0 13.0 0.00 0.00 0.00 83 957.2
20260505015553 32 186 5.0 15.0 0.00 0.00 0.00 82 957.2
20260505015052 32 82 5.0 15.0 0.00 0.00 0.00 82 957.1
20260505014552 32 184 5.0 15.0 0.00 0.00 0.00 82 957.3
20260505014052 32 194 4.0 15.0 0.00 0.00 0.00 81 957.2
20260505013552 32 47 4.0 14.0 0.00 0.00 0.00 81 957.1
20260505013022 32 152 4.0 14.0 0.00 0.00 0.00 82 957.2
20260505012522 32 222 5.0 17.0 0.00 0.00 0.00 82 957.0
20260505012022 32 154 5.0 17.0 0.00 0.00 0.00 82 957.0
20260505011452 32 93 6.0 15.0 0.00 0.00 0.00 82 957.0
20260505010952 32 147 6.0 15.0 0.00 0.00 0.00 82 957.0
20260505010452 33 151 6.0 16.0 0.00 0.00 0.00 82 956.6
20260505005952 33 127 5.0 16.0 0.00 0.00 0.00 82 956.6
20260505005422 33 196 6.0 16.0 0.00 0.00 0.00 82 956.6
20260505004852 33 139 6.0 16.0 0.00 0.00 0.00 82 956.5
20260505004352 33 146 6.0 17.0 0.00 0.00 0.00 82 956.6
20260505003852 33 183 6.0 17.0 0.00 0.00 0.00 82 956.5
20260505003352 33 143 5.0 15.0 0.00 0.00 0.00 82 956.4
20260505002852 33 128 6.0 16.0 0.00 0.00 0.00 82 956.3
20260505002352 33 102 6.0 21.0 0.00 0.00 0.00 82 956.3
20260505001852 33 195 6.0 21.0 0.00 0.00 0.00 82 956.2
20260505001322 33 219 5.0 17.0 0.00 0.00 0.00 82 956.2
20260505000822 33 33 5.0 17.0 0.00 0.00 0.00 82 956.2
20260505000322 33 249 6.0 17.0 0.00 0.00 0.00 82 956.1
20260504235822 33 151 6.0 16.0 0.00 0.00 0.00 82 956.2
20260504235252 33 100 5.0 15.0 0.00 0.00 0.00 83 956.1
20260504234722 33 174 6.0 15.0 0.00 0.00 0.00 82 956.1
20260504234222 33 84 6.0 19.0 0.00 0.00 0.00 83 956.0
20260504233722 33 90 6.0 19.0 0.00 0.00 0.00 83 956.0
20260504233222 33 137 5.0 17.0 0.00 0.00 0.00 83 956.0
20260504232722 33 119 5.0 18.0 0.00 0.00 0.00 83 956.0
20260504232222 33 196 5.0 18.0 0.00 0.00 0.00 83 956.0
20260504231722 33 133 5.0 17.0 0.00 0.00 0.00 83 956.0
20260504231152 33 97 5.0 17.0 0.00 0.00 0.00 84 956.0
20260504230652 33 112 5.0 17.0 0.00 0.00 0.00 84 956.0
20260504230152 33 156 5.0 15.0 0.00 0.00 0.00 84 956.0
20260504225652 33 101 5.0 18.0 0.00 0.00 0.00 84 956.0
20260504225122 33 122 5.0 18.0 0.00 0.00 0.00 83 956.0
20260504224622 33 171 5.0 18.0 0.00 0.00 0.00 82 956.0
20260504224122 33 144 5.0 17.0 0.00 0.00 0.00 82 956.0
20260504223622 33 91 5.0 19.0 0.00 0.00 0.00 81 956.0
20260504223052 33 53 5.0 19.0 0.00 0.00 0.00 81 956.0
20260504222522 33 209 4.0 17.0 0.00 0.00 0.00 80 956.0
20260504222022 33 2 4.0 17.0 0.00 0.00 0.00 79 956.0
20260504221522 33 127 4.0 14.0 0.00 0.00 0.00 78 956.0
20260504220952 33 91 5.0 14.0 0.00 0.00 0.00 78 956.0
20260504220452 33 118 5.0 14.0 0.00 0.00 0.00 77 955.6
20260504215952 33 119 5.0 19.0 0.00 0.00 0.00 77 955.6
20260504215452 33 133 5.0 19.0 0.00 0.00 0.00 76 956.0
20260504214952 33 39 5.0 19.0 0.00 0.00 0.00 77 955.6
20260504214452 33 15 5.0 18.0 0.00 0.00 0.00 76 955.6
20260504213951 33 5 6.0 18.0 0.00 0.00 0.00 75 955.6
20260504213451 33 155 5.0 17.0 0.00 0.00 0.00 74 955.5
20260504212951 34 171 4.0 14.0 0.00 0.00 0.00 74 956.0
20260504212421 33 349 3.0 13.0 0.00 0.00 0.00 75 956.0
20260504211921 33 46 3.0 12.0 0.00 0.00 0.00 75 956.0
20260504211421 33 67 3.0 12.0 0.00 0.00 0.00 74 956.0
20260504210851 33 91 3.0 12.0 0.00 0.00 0.00 73 956.0
20260504210351 33 37 3.0 13.0 0.00 0.00 0.00 72 956.0
20260504205851 33 59 4.0 13.0 0.00 0.00 0.00 71 956.0
20260504205351 33 102 3.0 15.0 0.00 0.00 0.00 70 956.0
20260504204821 34 114 4.0 15.0 0.00 0.00 0.00 70 956.0
20260504204321 34 183 3.0 11.0 0.00 0.00 0.00 70 956.0
20260504203821 34 136 3.0 11.0 0.00 0.00 0.00 71 956.0
20260504203321 34 132 3.0 11.0 0.00 0.00 0.00 72 956.0
20260504202751 34 114 3.0 11.0 0.00 0.00 0.00 71 956.0
20260504202251 34 109 3.0 11.0 0.00 0.00 0.00 72 956.0
20260504201751 34 81 3.0 11.0 0.00 0.00 0.00 72 956.0
20260504201251 34 93 3.0 10.0 0.00 0.00 0.00 72 956.0
20260504200751 34 81 3.0 11.0 0.00 0.00 0.00 72 956.0
20260504200221 34 117 4.0 13.0 0.00 0.00 0.00 72 956.1
20260504195721 35 92 5.0 18.0 0.00 0.00 0.00 71 956.1
20260504195221 35 149 5.0 24.0 0.00 0.00 0.00 71 956.0
20260504194721 35 145 5.0 24.0 0.00 0.00 0.00 70 956.0
20260504194151 35 102 4.0 14.0 0.00 0.00 0.00 70 956.0
20260504193651 35 132 3.0 14.0 0.00 0.00 0.00 71 956.0
20260504193151 35 60 3.0 12.0 0.00 0.00 0.00 71 956.0
20260504192621 35 71 4.0 14.0 0.00 0.00 0.00 71 956.0
20260504192121 36 21 4.0 14.0 0.00 0.00 0.00 70 956.1
20260504191621 36 106 4.0 14.0 0.00 0.00 0.00 69 956.1
20260504191051 36 354 3.0 9.0 0.00 0.00 0.00 70 956.1
20260504190551 36 83 3.0 12.0 0.00 0.00 0.00 71 956.2
20260504190051 36 5 3.0 12.0 0.00 0.00 0.00 71 956.3
20260504185551 36 111 3.0 11.0 0.00 0.00 0.00 70 956.1
20260504185051 36 116 3.0 11.0 0.00 0.00 0.00 69 956.2
20260504184551 36 122 4.0 14.0 0.00 0.00 0.00 68 956.2
20260504184051 37 116 5.0 14.0 0.00 0.00 0.00 67 956.1
20260504183550 37 111 5.0 14.0 0.00 0.00 0.00 68 956.1
20260504183050 37 87 4.0 12.0 0.00 0.00 0.00 67 956.1
20260504182550 37 21 4.0 12.0 0.00 0.00 0.00 66 956.1
20260504182021 38 82 5.0 16.0 0.00 0.00 0.00 62 956.1
20260504181520 38 91 5.0 17.0 0.00 0.00 0.00 60 956.1
20260504180950 38 130 5.0 17.0 0.00 0.00 0.00 59 956.1
20260504180450 38 154 6.0 19.0 0.00 0.00 0.00 59 956.1
20260504175950 38 97 6.0 19.0 0.00 0.00 0.00 61 956.3
20260504175450 38 108 7.0 19.0 0.00 0.00 0.00 62 956.1
20260504174950 38 96 7.0 26.0 0.00 0.00 0.00 63 956.1
20260504174450 38 79 6.0 26.0 0.00 0.00 0.00 63 956.0
20260504173950 39 62 6.0 26.0 0.00 0.00 0.00 58 956.0
20260504173450 39 160 5.0 21.0 0.00 0.00 0.00 56 956.0
20260504172950 40 111 6.0 18.0 0.00 0.00 0.00 56 956.0
20260504172450 40 128 6.0 18.0 0.00 0.00 0.00 56 956.0
20260504171920 40 88 6.0 20.0 0.00 0.00 0.00 56 956.0
20260504171420 40 135 6.0 20.0 0.00 0.00 0.00 55 956.0
20260504170920 40 63 5.0 17.0 0.00 0.00 0.00 54 956.0
20260504170420 40 63 6.0 22.0 0.00 0.00 0.00 54 956.0
20260504160250 42 66 5.0 15.0 0.00 0.00 0.00 51 956.0
20260504151119 43 125 8.0 27.0 0.00 0.00 0.00 52 956.0
20260504150619 44 109 8.0 27.0 0.00 0.00 0.00 51 956.0
20260504140849 43 98 5.0 21.0 0.00 0.00 0.00 55 956.0
20260504140319 42 135 5.0 21.0 0.00 0.00 0.00 56 956.0
20260504130749 44 80 4.0 10.0 0.00 0.00 0.00 57 956.4
20260504130249 45 357 4.0 11.0 0.00 0.00 0.00 54 956.4
20260504120248 42 164 8.0 30.0 0.00 0.00 0.00 53 956.2
20260504110718 44 25 5.0 21.0 0.00 0.00 0.00 50 956.0
20260504110218 44 69 5.0 21.0 0.00 0.00 0.00 51 956.0
20260504100517 45 150 6.0 19.0 0.00 0.00 0.00 60 956.1
20260504081717 50 162 4.0 13.0 0.00 0.00 0.00 47 955.4
20260504081217 53 97 3.0 13.0 0.00 0.00 0.00 46 955.7
20260504080717 53 46 3.0 10.0 0.00 0.00 0.00 46 955.8
20260504080217 55 80 2.0 9.0 0.00 0.00 0.00 48 955.8
20260504070146 49 104 2.0 5.0 0.00 0.00 0.00 59 955.8